Wind_Speed
18 18 18 17 10 5 8 9 15 16 12 11 11 6 6 7 14 4 4 9 6 5 4 4 4 3 4 4 3 3 3 2 1 1 1 3 4 4 4 3 2 5 1 6 9 9 10 8 6
18 20 21 20 7 8 11 13 16 15 11 9 8 7 6 9 13 5 6 9 7 5 4 6 5 5 5 5 5 4 4 3 2 1 1 2 4 4 4 4 2 6 3 9 11 10 8 5 2
20 22 21 14 6 7 13 16 16 14 12 11 9 7 7 8 12 9 7 11 10 7 6 7 7 7 7 6 6 5 5 4 4 3 3 3 3 3 4 3 2 3 7 9 11 10 8 4 2
23 22 17 9 9 11 16 18 16 14 13 10 9 7 10 9 10 10 8 9 10 7 7 8 9 10 9 8 8 7 6 5 5 5 5 5 4 4 3 2 3 5 7 8 10 11 8 5 3
24 23 13 11 14 14 19 20 18 15 13 12 12 13 10 11 13 13 9 8 10 9 10 10 10 11 11 10 10 9 8 7 6 6 6 7 6 6 6 5 5 5 6 7 8 9 9 6 4
24 21 13 17 17 17 18 18 16 14 12 10 10 10 12 9 9 12 12 12 12 13 13 13 13 14 14 13 12 12 12 11 10 8 7 8 8 8 8 7 7 7 7 7 6 7 8 6 4
20 19 14 16 19 20 19 18 16 14 11 9 8 7 7 8 7 10 12 14 15 15 15 15 16 16 15 15 15 15 14 14 14 12 11 10 9 9 9 9 8 8 8 8 8 6 6 5 4
20 18 14 18 20 18 18 17 15 14 11 9 7 6 10 8 9 9 11 13 16 16 18 18 18 18 18 18 18 18 18 16 16 16 15 13 12 11 11 12 11 10 10 10 9 8 7 4 3
22 15 14 17 19 17 18 16 14 12 11 9 8 9 7 8 9 9 10 11 12 16 17 20 21 22 23 22 21 21 20 20 18 18 18 16 15 15 13 13 13 12 11 10 10 8 7 7 4
24 19 13 12 17 16 16 15 13 11 9 8 8 8 10 11 10 10 11 12 13 15 16 18 20 23 23 23 24 24 24 23 23 21 21 19 17 17 16 15 14 14 13 12 12 11 9 8 8
23 16 12 12 14 16 16 14 13 12 11 10 9 9 10 12 14 14 14 15 16 16 17 18 19 22 25 26 25 26 26 26 26 24 23 23 22 20 19 17 16 15 15 14 15 14 12 11 9
19 18 14 13 14 15 15 14 13 13 13 12 11 12 13 14 15 16 18 19 21 21 23 24 25 25 25 25 29 30 29 30 30 28 27 26 26 24 22 21 19 18 17 16 17 16 15 15 13
19 19 15 14 13 14 14 13 12 13 13 14 15 16 17 19 20 21 22 23 24 24 26 27 28 30 31 31 29 29 32 35 35 35 33 32 30 29 27 26 24 23 21 19 18 18 18 17 17
18 16 16 14 13 13 14 14 14 15 16 18 18 18 19 21 23 23 25 25 27 28 29 30 31 33 33 34 34 35 35 35 35 39 40 39 38 35 32 31 28 26 25 24 21 20 21 21 20
13 16 15 14 14 15 16 17 17 18 17 18 19 22 23 24 25 26 28 28 30 30 30 31 33 35 37 38 38 38 39 40 39 38 39 39 43 44 42 36 33 32 30 28 27 25 25 26 25
12 13 14 14 14 14 14 14 13 14 16 16 18 22 24 26 27 29 30 32 33 34 34 35 35 36 37 38 40 42 43 44 43 44 43 41 40 42 45 45 41 38 36 34 31 30 30 30 30
13 8 15 12 12 14 14 13 12 15 18 18 21 24 25 28 30 31 32 33 34 36 37 38 39 40 41 41 40 42 44 46 47 48 47 46 45 44 44 46 45 43 40 38 36 35 33 34 32
10 12 9 12 11 13 16 16 14 18 22 21 25 27 28 29 32 33 34 35 36 38 39 40 41 42 45 46 46 46 47 47 49 50 51 51 50 49 49 47 46 46 46 44 41 40 38 37 35
7 8 8 9 11 13 17 19 17 22 23 25 28 30 31 31 31 33 35 35 35 37 39 41 42 43 46 48 49 50 51 50 51 52 52 52 53 53 52 52 51 49 50 48 47 45 44 42 37
6 6 7 9 12 17 21 24 23 25 27 27 27 27 28 28 29 31 33 35 37 38 40 41 44 45 46 49 50 51 52 52 54 53 53 53 54 54 55 56 54 53 53 52 50 49 48 46 43
6 6 9 11 15 18 24 29 24 20 21 22 20 24 25 25 25 26 28 30 33 35 38 41 43 47 50 53 55 55 54 54 53 51 50 50 53 55 55 57 58 56 54 55 53 51 51 44 47
7 9 10 12 12 8 14 9 20 25 23 24 23 16 17 21 24 27 29 28 28 29 32 34 36 38 42 47 54 60 61 59 56 52 50 48 48 51 52 55 57 57 57 56 54 52 52 52 49
6 7 9 11 13 14 14 9 6 15 18 14 14 16 20 24 26 24 20 20 23 25 27 31 35 37 43 49 52 54 57 58 58 55 53 53 52 50 50 51 53 55 56 56 55 54 51 52 53
5 7 10 13 11 4 7 8 7 11 10 11 12 17 22 21 17 14 18 22 25 24 28 34 36 38 40 39 37 40 41 41 43 44 46 50 53 52 51 51 52 52 53 54 54 54 55 52 52
5 5 4 4 2 4 4 8 16 11 10 10 13 17 17 12 12 15 18 21 23 25 29 33 37 40 38 28 31 32 29 27 27 28 32 38 41 46 49 49 51 53 52 51 52 52 54 54 54
5 6 3 5 2 5 8 9 3 1 5 9 13 13 10 13 14 16 19 23 25 28 34 40 43 41 38 30 25 22 19 18 19 23 26 27 30 34 41 45 49 51 52 51 50 50 51 52 53
3 4 4 1 3 4 6 10 15 12 5 9 11 9 11 14 15 17 19 21 25 32 37 42 46 42 28 25 17 11 14 18 22 24 25 25 24 26 31 36 39 44 46 46 45 46 46 47 49
6 5 1 1 1 4 7 11 10 3 6 8 12 9 12 14 16 17 19 23 28 31 37 43 37 19 16 17 11 9 8 12 14 15 14 14 15 17 22 24 27 33 37 38 38 38 39 41 43
7 5 5 3 3 3 4 8 3 2 6 12 14 11 13 14 16 17 20 24 26 30 35 38 22 16 11 9 7 7 7 8 8 7 7 8 10 10 11 13 16 21 26 28 29 30 31 34 35
8 9 10 6 6 8 4 16 4 3 11 18 15 10 12 14 16 17 19 21 23 27 31 33 29 13 9 8 7 7 8 8 9 9 8 8 8 7 7 7 9 13 17 21 24 26 28 29 29
Wind_Direction
187 184 182 175 178 190 176 162 162 172 172 170 176 157 176 190 186 208 167 184 179 171 188 213 210 239 260 277 308 339 355 356 343 351 354 2 5 19 36 36 19 111 247 324 331 331 334 342 346
179 177 175 175 187 176 167 162 164 170 174 173 163 158 168 189 193 183 140 164 188 196 219 225 227 244 257 269 289 313 327 332 313 279 270 313 335 1 7 28 143 143 310 337 339 340 343 355 1
175 176 172 176 179 174 165 163 171 174 182 183 192 193 204 187 198 214 188 180 185 193 223 233 235 247 257 262 277 292 309 312 307 283 272 280 312 335 353 27 132 323 339 354 355 355 355 2 16
174 171 173 182 171 160 162 166 171 176 187 201 215 237 236 236 233 232 210 188 192 203 230 242 241 238 243 259 265 275 295 300 300 292 277 272 277 286 303 318 306 325 343 360 5 8 10 357 359
174 173 173 170 165 161 166 169 172 181 191 203 219 228 242 237 240 237 223 222 221 230 228 239 238 239 247 254 265 270 281 282 286 285 286 279 277 283 288 293 301 309 330 355 8 17 17 10 352
174 174 182 171 169 166 168 179 183 191 202 211 229 236 237 243 242 235 236 235 234 228 231 233 234 226 230 242 252 264 273 274 276 280 281 283 282 281 281 285 294 306 315 329 351 16 24 20 4
184 182 182 177 171 168 172 178 182 190 204 216 224 227 236 239 246 242 242 240 240 238 233 233 237 236 239 240 244 246 257 269 273 274 279 279 280 281 282 281 285 293 298 310 330 349 18 28 17
188 190 178 180 177 174 177 181 186 190 200 212 225 244 242 246 245 253 254 256 249 245 240 236 234 238 243 248 248 253 252 251 259 268 273 277 278 276 275 277 279 283 290 297 310 325 336 0 21
195 192 183 183 184 186 189 192 201 209 217 225 234 240 250 255 262 263 265 267 264 255 253 246 243 244 246 250 250 251 254 254 249 255 260 270 277 277 273 273 277 278 280 284 291 299 313 321 334
196 198 192 189 191 198 203 208 218 223 228 236 239 244 248 252 258 265 270 266 262 259 258 255 252 253 254 253 249 247 250 255 255 251 257 261 264 270 274 275 276 275 277 279 279 286 292 302 306
202 205 196 188 196 205 210 213 223 235 244 254 262 266 262 261 263 265 264 260 257 257 261 260 258 256 256 255 255 251 250 249 251 254 252 252 255 258 262 267 272 271 274 272 270 270 276 281 290
204 208 208 194 198 206 211 216 222 237 247 257 267 277 280 277 271 265 263 262 259 258 260 263 263 263 262 258 255 254 254 255 252 252 250 250 252 252 255 259 259 262 267 267 266 270 270 275 278
205 208 207 203 202 212 218 220 222 236 251 265 272 276 277 275 271 267 263 262 263 262 263 263 265 267 269 270 266 262 258 255 257 258 256 253 251 253 256 255 255 257 258 261 262 262 262 265 270
207 209 212 209 209 217 230 234 239 248 258 267 272 273 270 267 268 270 272 271 270 269 266 266 266 266 265 265 266 268 265 260 257 256 256 257 259 256 254 255 253 254 255 253 255 259 256 255 263
205 208 215 219 223 232 240 248 248 252 255 260 267 269 270 271 273 276 278 278 278 275 273 271 269 267 265 264 264 263 264 265 262 257 257 256 253 255 258 254 255 255 253 254 250 249 252 255 261
198 204 211 223 228 234 238 246 253 256 259 259 261 266 270 275 278 278 279 280 280 280 279 277 275 273 270 267 265 263 263 263 263 263 260 258 255 252 252 255 255 257 256 254 252 251 249 251 257
195 206 213 223 231 238 241 249 253 260 262 266 270 271 276 278 280 280 279 278 278 278 277 276 275 274 273 272 268 266 263 262 261 261 261 262 260 256 252 252 254 255 256 258 256 253 253 254 255
212 216 217 228 242 250 256 256 258 267 271 273 275 279 280 280 281 280 279 279 278 277 277 276 275 274 273 272 269 266 262 261 261 260 259 258 257 257 257 255 253 253 255 256 257 258 256 255 259
213 218 234 245 259 270 272 273 263 270 278 281 283 284 284 281 278 278 278 278 278 280 279 279 277 275 275 273 270 268 266 264 261 260 259 259 258 258 257 255 254 253 253 255 256 257 259 258 255
200 216 243 270 281 286 285 283 281 281 283 281 276 275 275 275 276 278 280 284 286 285 284 284 283 281 277 274 271 269 266 263 261 259 258 258 258 257 256 256 255 253 253 254 254 256 257 258 259
221 252 272 283 289 290 293 293 289 286 281 275 271 280 276 276 279 281 284 286 288 291 290 288 287 285 282 279 275 270 266 263 259 257 256 256 257 258 258 257 255 255 253 253 253 253 255 258 258
257 265 272 282 292 285 297 283 284 288 281 276 277 274 281 284 285 289 293 299 299 296 296 298 297 295 291 284 277 272 268 264 261 258 255 253 252 253 255 257 257 256 254 254 254 254 253 254 255
254 259 273 282 287 294 285 268 288 285 268 257 268 285 294 295 299 298 299 298 307 308 308 304 302 301 295 285 276 271 266 265 266 263 260 257 254 250 249 253 255 257 256 255 254 254 254 254 254
253 276 293 290 288 282 258 240 281 268 271 258 280 294 298 301 302 307 313 315 316 309 314 317 308 305 311 295 287 276 271 268 266 267 267 264 257 253 251 249 251 253 256 256 254 253 254 254 256
254 279 310 335 359 227 287 268 261 270 244 277 295 300 301 311 312 316 317 323 331 327 321 323 324 327 327 307 298 288 278 274 272 271 268 264 261 255 249 250 251 252 252 253 254 253 251 252 253
236 224 210 218 254 286 277 243 254 248 245 286 302 300 315 323 320 319 328 328 329 329 333 334 329 322 318 314 309 291 278 276 277 286 281 273 268 258 251 248 250 251 251 251 252 252 252 251 252
245 191 215 226 304 291 263 280 288 278 242 314 319 322 317 322 321 329 327 327 332 344 341 335 327 319 309 308 323 303 276 276 288 292 288 282 274 265 259 253 252 253 253 254 257 258 257 254 252
224 208 178 234 18 292 288 282 259 219 322 336 337 319 313 321 325 324 330 337 350 346 344 340 334 344 326 328 346 342 316 304 305 310 306 304 302 293 275 267 259 255 256 257 259 261 262 262 260
222 216 222 225 181 198 304 281 224 287 332 340 331 310 311 320 319 333 341 346 349 347 347 348 351 353 355 359 356 344 330 322 315 311 325 330 323 313 304 292 275 264 260 262 265 269 268 268 267
245 249 239 205 192 222 249 278 202 320 336 329 319 302 305 317 329 336 341 345 346 350 352 357 2 19 20 15 359 344 338 331 324 324 324 326 326 325 321 302 276 263 261 263 266 267 267 267 267
Height
3133 3138 3142 3146 3154 3151 3152 3155 3156 3158 3162 3164 3166 3169 3171 3172 3174 3178 3175 3176 3178 3179 3181 3182 3183 3183 3184 3184 3184 3184 3184 3184 3184 3184 3184 3183 3183 3182 3182 3182 3183 3183 3183 3182 3181 3181 3180 3180 3179
3133 3137 3141 3144 3148 3148 3152 3154 3156 3159 3161 3164 3166 3169 3171 3172 3173 3174 3175 3177 3179 3179 3181 3181 3182 3183 3184 3185 3185 3185 3185 3185 3185 3185 3185 3184 3184 3184 3183 3183 3182 3183 3184 3183 3181 3180 3179 3178 3178
3133 3136 3142 3144 3146 3148 3151 3153 3156 3159 3161 3163 3166 3168 3170 3172 3173 3174 3175 3176 3178 3179 3180 3181 3182 3184 3184 3184 3184 3185 3185 3185 3186 3185 3185 3185 3185 3185 3184 3184 3184 3184 3184 3183 3182 3180 3179 3178 3177
3132 3137 3142 3143 3145 3148 3150 3154 3156 3158 3161 3163 3165 3168 3169 3170 3172 3173 3175 3176 3177 3178 3180 3181 3182 3183 3183 3184 3185 3185 3185 3185 3185 3186 3185 3185 3185 3185 3185 3184 3184 3184 3184 3183 3182 3180 3179 3178 3178
3132 3135 3139 3141 3144 3147 3149 3152 3155 3158 3161 3163 3165 3166 3168 3169 3170 3172 3174 3175 3176 3177 3178 3180 3181 3182 3183 3183 3184 3184 3184 3185 3185 3185 3185 3185 3185 3185 3185 3185 3185 3184 3183 3183 3182 3180 3179 3179 3178
3132 3135 3138 3140 3143 3146 3149 3152 3155 3158 3160 3163 3165 3166 3167 3168 3169 3171 3172 3174 3175 3176 3177 3178 3179 3179 3180 3181 3182 3183 3184 3184 3184 3184 3183 3184 3184 3184 3185 3185 3185 3184 3183 3183 3182 3180 3179 3178 3178
3131 3134 3136 3139 3142 3145 3148 3151 3155 3157 3159 3161 3163 3165 3167 3167 3168 3169 3170 3171 3173 3174 3176 3177 3177 3177 3178 3178 3179 3180 3181 3182 3183 3183 3183 3183 3183 3183 3183 3184 3184 3184 3183 3182 3182 3181 3179 3178 3177
3131 3134 3136 3138 3141 3145 3148 3151 3154 3157 3159 3161 3162 3163 3165 3166 3167 3168 3168 3169 3171 3172 3173 3173 3175 3175 3176 3177 3177 3178 3178 3179 3179 3181 3181 3181 3181 3181 3181 3182 3182 3182 3182 3182 3181 3181 3181 3179 3177
3130 3133 3135 3138 3142 3145 3148 3151 3153 3156 3158 3160 3161 3163 3165 3165 3166 3167 3168 3168 3169 3170 3170 3171 3171 3171 3172 3173 3174 3175 3176 3176 3176 3176 3178 3179 3179 3180 3180 3180 3180 3180 3180 3180 3179 3179 3180 3179 3178
3127 3131 3135 3139 3142 3145 3147 3150 3153 3156 3157 3158 3160 3162 3163 3164 3165 3165 3166 3166 3166 3166 3167 3167 3168 3168 3169 3169 3170 3171 3172 3172 3173 3174 3174 3175 3176 3176 3177 3178 3178 3178 3178 3178 3177 3177 3177 3178 3177
3127 3131 3134 3138 3141 3144 3146 3149 3151 3153 3155 3156 3158 3160 3161 3162 3163 3163 3163 3163 3163 3163 3163 3163 3164 3164 3164 3165 3165 3166 3167 3168 3168 3169 3170 3170 3171 3172 3173 3174 3175 3175 3175 3175 3175 3175 3175 3175 3175
3128 3131 3134 3137 3140 3143 3145 3148 3149 3151 3153 3154 3156 3157 3158 3158 3159 3159 3159 3159 3159 3160 3160 3160 3160 3159 3159 3160 3160 3162 3163 3164 3164 3164 3165 3166 3166 3167 3168 3169 3170 3170 3171 3172 3172 3172 3172 3173 3172
3127 3130 3133 3135 3138 3141 3144 3146 3148 3149 3150 3151 3153 3153 3154 3154 3153 3153 3153 3153 3155 3156 3156 3156 3156 3156 3156 3156 3157 3157 3158 3159 3159 3160 3161 3160 3161 3162 3163 3163 3164 3165 3166 3167 3168 3168 3169 3169 3169
3126 3129 3132 3134 3137 3140 3142 3144 3146 3146 3147 3147 3148 3148 3148 3147 3147 3148 3148 3150 3150 3151 3151 3151 3150 3150 3150 3150 3150 3150 3151 3151 3152 3153 3154 3156 3156 3156 3157 3157 3158 3160 3160 3161 3163 3164 3164 3164 3164
3125 3128 3130 3133 3136 3138 3140 3142 3141 3142 3143 3144 3144 3143 3142 3143 3143 3143 3143 3144 3143 3144 3145 3144 3144 3143 3143 3142 3143 3142 3142 3141 3143 3144 3144 3145 3147 3149 3150 3151 3152 3153 3154 3156 3156 3157 3158 3159 3159
3125 3127 3129 3130 3132 3135 3138 3138 3137 3138 3139 3140 3140 3139 3138 3138 3139 3138 3138 3137 3137 3136 3136 3136 3135 3134 3134 3134 3134 3134 3134 3133 3133 3134 3135 3136 3137 3138 3140 3142 3144 3147 3147 3148 3150 3151 3151 3152 3153
3123 3125 3127 3129 3130 3132 3134 3134 3135 3134 3134 3135 3135 3134 3135 3134 3133 3134 3133 3132 3131 3129 3129 3128 3127 3126 3125 3125 3126 3125 3124 3124 3125 3125 3126 3127 3128 3130 3130 3132 3135 3138 3140 3141 3143 3144 3145 3146 3146
3122 3124 3126 3127 3129 3129 3129 3130 3132 3130 3129 3131 3130 3130 3130 3130 3128 3126 3126 3124 3124 3122 3121 3120 3120 3118 3116 3115 3114 3114 3113 3114 3114 3114 3115 3116 3117 3118 3121 3124 3126 3128 3130 3132 3135 3137 3138 3138 3140
3122 3124 3125 3126 3126 3127 3126 3126 3128 3126 3126 3126 3125 3123 3122 3122 3121 3119 3117 3116 3115 3115 3113 3110 3109 3109 3105 3104 3103 3102 3101 3103 3103 3103 3104 3106 3107 3108 3109 3111 3114 3117 3119 3123 3125 3128 3129 3130 3133
3122 3123 3125 3125 3125 3125 3122 3120 3122 3121 3121 3121 3119 3117 3116 3115 3114 3112 3110 3109 3107 3105 3103 3101 3098 3096 3094 3091 3090 3088 3088 3089 3089 3091 3092 3094 3095 3096 3097 3098 3101 3105 3107 3110 3114 3118 3120 3121 3125
3121 3122 3123 3124 3123 3122 3119 3114 3115 3116 3115 3113 3113 3112 3110 3109 3108 3107 3105 3103 3100 3097 3093 3090 3087 3083 3080 3077 3074 3073 3072 3072 3074 3077 3079 3081 3081 3082 3084 3086 3088 3092 3095 3098 3102 3106 3109 3112 3114
3121 3122 3122 3123 3123 3122 3121 3113 3110 3109 3108 3107 3106 3106 3105 3104 3102 3100 3098 3096 3092 3088 3084 3080 3076 3071 3067 3062 3057 3054 3054 3054 3057 3061 3064 3065 3066 3068 3070 3072 3075 3079 3083 3086 3091 3095 3097 3101 3103
3121 3121 3121 3120 3119 3117 3115 3114 3102 3103 3101 3102 3102 3102 3100 3098 3097 3095 3092 3089 3086 3082 3078 3073 3067 3062 3054 3046 3040 3037 3035 3036 3040 3044 3047 3050 3052 3054 3057 3059 3062 3064 3068 3073 3078 3082 3086 3089 3092
3119 3119 3118 3116 3115 3114 3110 3111 3100 3098 3099 3100 3100 3099 3096 3095 3092 3089 3086 3083 3079 3075 3071 3064 3057 3050 3040 3030 3026 3024 3023 3026 3027 3030 3032 3035 3037 3041 3044 3046 3048 3051 3055 3059 3064 3069 3074 3077 3080
3117 3118 3118 3119 3117 3114 3110 3109 3097 3097 3097 3098 3097 3096 3093 3091 3089 3086 3083 3079 3073 3069 3065 3057 3048 3038 3030 3026 3021 3016 3016 3018 3020 3021 3021 3021 3023 3027 3031 3034 3036 3039 3043 3047 3051 3055 3059 3064 3067
3117 3118 3118 3124 3122 3114 3109 3100 3094 3094 3095 3095 3095 3092 3090 3088 3085 3082 3078 3073 3069 3064 3055 3045 3036 3030 3026 3021 3016 3012 3012 3013 3015 3015 3014 3013 3014 3017 3020 3021 3024 3028 3031 3035 3039 3043 3047 3052 3056
3115 3116 3118 3117 3118 3116 3103 3096 3093 3092 3093 3092 3090 3088 3086 3084 3081 3078 3075 3071 3065 3055 3048 3040 3030 3022 3019 3017 3013 3010 3011 3012 3012 3011 3011 3009 3009 3010 3012 3014 3015 3018 3021 3026 3030 3034 3037 3041 3044
3114 3116 3117 3117 3121 3119 3100 3095 3089 3090 3090 3089 3087 3085 3084 3081 3078 3075 3071 3066 3058 3054 3046 3037 3025 3018 3016 3013 3012 3011 3010 3010 3010 3008 3006 3005 3005 3005 3008 3009 3009 3012 3015 3019 3023 3026 3029 3032 3036
3112 3112 3114 3115 3116 3116 3112 3092 3089 3089 3088 3087 3085 3083 3081 3079 3075 3071 3066 3061 3057 3053 3046 3038 3028 3022 3016 3013 3012 3011 3011 3010 3009 3007 3005 3004 3003 3003 3003 3004 3006 3008 3011 3015 3017 3021 3023 3025 3027
3110 3110 3111 3112 3113 3113 3111 3089 3084 3086 3085 3084 3082 3080 3079 3075 3071 3068 3065 3061 3058 3053 3048 3040 3031 3023 3019 3016 3015 3014 3013 3011 3009 3008 3006 3006 3005 3003 3002 3001 3002 3003 3006 3009 3012 3014 3016 3018 3019